Location: Newark
(42.8481°N, 0.4872°E)
Time: 19:52:58
(UTC+00:00)

Transit 2A - Pass Details

Date: 28 October 2020
Orbit: 595 x 963 km, 66.7° (Epoch: 03 December)

Event Time Altitude Azimuth Distance (km) Brightness Sun altitude
Rises 03:18:07 0° 269° (W) 3,646 - -35.1°
Reaches altitude 10° 03:21:55 10° 291° (WNW) 2,695 - -34.4°
Maximum altitude 03:25:32 15° 326° (NNW) 2,296 - -33.8°
Exits shadow 03:28:06 12° 353° (N) 2,475 8.7 -33.3°
Drops below altitude 10° 03:29:05 10° 2° (N) 2,635 8.9 -33.1°
Sets 03:32:46 0° 24° (NNE) 3,523 9.9 -32.5°
